User: anonymous   Login
Location: ??????
(38.0677°N, 22.9870°E)
Time: 14:15:51
(UTC+00:00)
Language:

NOAA 7 - Orbit

View from above orbital plane
View from above orbital plane
View from above satellite
View from above satellite

Ground track
Ground track

The orbit data is extracted from the following two-line orbital elements,

1 12553U 81059A   24277.89060125  .00000580  00000-0  30751-3 0  9994
2 12553  98.8817 337.2567 0010557 241.7607 118.2503 14.17589988236716
Epoch (UTC): 03 October 2024 21:22:27
Eccentricity: 0.0010557
inclination: 98.8817°
perigee height: 826 km
apogee height: 841 km
right ascension of ascending node: 337.2567°
argument of perigee: 241.7607°
revolutions per day: 14.17589988
mean anomaly at epoch: 118.2503°
orbit number at epoch: 23671

The dashed part of the orbit path shows where the satellite is in the earth's shadow,  

DLR